[[{"header":{"parameterUnit":"m.s-1","parameterCategory":1,"la1":30.2991,"la2":30.254,"lo1":-89.0895,"lo2":-89.0444,"dy":0.0017,"dx":0.0017,"nx":28,"ny":28,"refTime":"2025-07-22T21:00:00:Z","depth":0,"parameterNumber":2,"parameterNumberName":"U-component_of_WINDS"},"data":[0,0,0,0,0,0,0,0,0,0,0,0,0,0,0,0,0,0,0,0,0,0,0,0,0,0,0,0,0,0,0,0,0,0,0,0,0,0,0,0,0,0,0,0,0,0,0,0,0,0,0,0,0,0,0,0,0,0,-3.4361,-3.4368,0,-3.4979,-3.4986,-3.4993,-3.5336,-3.5337,-3.5338,-3.5339,-3.5961,-3.5976,-3.5991,0,0,0,0,0,0,0,0,0,0,0,0,0,-3.3469,-3.3484,-3.436,-3.4368,-3.4376,-3.4978,-3.4987,-3.4995,-3.5336,-3.5337,-3.5338,-3.5339,-3.5956,-3.5974,-3.5993,0,0,0,0,0,0,0,0,0,0,0,0,0,-3.3948,-3.3489,-3.4359,-3.4619,-3.4648,-3.4977,-3.4987,-3.4997,-3.5336,-3.5337,-3.5339,-3.534,-3.5949,-3.5972,-3.5995,-3.6109,0,0,-3.6067,-3.6077,0,0,0,0,0,0,0,0,-3.3921,-3.3981,-3.4573,-3.4602,-3.4635,-3.5083,-3.4901,-3.537,-3.5335,-3.5074,-3.5339,-3.5341,-3.5666,-3.5713,-3.5826,-3.6138,-3.6165,-3.6069,-3.6083,-3.6093,-3.61,0,0,0,0,0,0,0,-3.3887,-3.3956,-3.4605,-3.4581,-3.4619,-3.4703,-3.4773,-3.4991,-3.5354,-3.5097,-3.5123,-3.5193,-3.5684,-3.5802,-3.5843,-3.6174,-3.6068,-3.6089,-3.6104,-3.6113,-3.6619,-3.6618,0,0,0,0,0,0,-3.3813,-3.3926,-3.4585,-3.4624,-3.4275,-3.4718,-3.4796,-3.4937,-3.5353,-3.5418,-3.5191,-3.5206,-3.5761,-3.5815,-3.5866,-3.6032,-3.6093,-3.6115,-3.6128,-3.662,-3.6619,-3.6618,0,0,0,0,0,0,-3.3793,-3.3869,-3.4561,-3.4283,-3.4377,-3.4732,-3.4887,-3.4948,-3.5068,-3.5424,-3.5489,-3.5245,-3.5765,-3.5833,-3.6049,-3.6057,-3.6125,-3.6147,-3.662,-3.6619,-3.6619,-3.6359,0,0,0,0,0,0,-3.3766,-3.386,-3.3907,-3.4281,-3.4391,-3.4733,-3.4888,-3.4959,-3.5108,-3.5135,-3.5492,-3.5553,-3.5771,-3.6012,-3.6072,-3.6091,-3.6165,-3.6621,-3.662,-3.6619,-3.6368,-3.6349,-3.6333,0,0,0,0,0,-3.3733,-3.3805,-3.3907,-3.3985,-3.4458,-3.4733,-3.4796,-3.5049,-3.5107,-3.5158,-3.5388,-3.5541,-3.6047,-3.6031,-3.6102,-3.6127,-3.6622,-3.662,-3.6619,-3.6376,-3.6353,-3.6333,0,0,0,0,0,0,-3.3416,-3.3858,-3.3977,-3.4173,-3.4414,-3.479,-3.4862,-3.5015,-3.5241,-3.5255,-3.5557,-3.5635,-3.5822,-3.5997,-3.5972,-3.6263,-3.6351,-3.6363,-3.6142,-3.6123,-3.6105,-3.6059,-3.6185,0,0,0,0,0,-3.3371,-3.356,-3.3935,-3.4071,-3.4187,-3.4503,-3.4632,-3.4808,-3.5067,-3.5169,-3.5415,-3.5658,-3.5874,-3.6008,-3.6225,-3.6396,-3.648,-3.6449,-3.6431,-3.6415,-3.6422,-3.653,-3.6522,-3.6614,-3.6614,-3.6614,0,0,-3.3275,-3.354,-3.364,-3.4015,-3.4222,-3.4411,-3.4586,-3.4776,-3.4919,-3.5197,-3.5419,-3.5607,-3.5899,-3.6094,-3.6192,-3.6246,-3.6416,-3.6413,-3.6398,-3.6414,-3.6528,-3.6519,-3.651,-3.6613,-3.6613,-3.6613,0,0,-3.3199,-3.3417,-3.3559,-3.3765,-3.4079,-3.429,-3.4323,-3.468,-3.4818,-3.5046,-3.5261,-3.5434,-3.5796,-3.5998,-3.6147,-3.6156,-3.6306,-3.6217,-3.6124,-3.6226,-3.6219,-3.6214,-3.6219,-3.6217,-3.6223,-3.6223,-3.6222,0,-3.3039,-3.3335,-3.361,-3.3792,-3.3951,-3.4219,-3.4364,-3.4549,-3.4915,-3.5018,-3.5074,-3.5541,-3.5755,-3.6004,-3.6007,-3.6118,-3.6167,-3.6177,-3.6198,-3.6196,-3.6196,-3.6204,-3.6205,-3.621,-3.6212,-3.6213,-3.6214,0,-3.3125,-3.3327,-3.3402,-3.3756,-3.3925,-3.4085,-3.4385,-3.4523,-3.4685,-3.4889,-3.512,-3.539,-3.5668,-3.5741,-3.5897,-3.6013,-3.6037,-3.6141,-3.6235,-3.6169,-3.6183,-3.6188,-3.6192,-3.6197,-3.62,-3.6203,0,0,-3.286,-3.3371,-3.3394,-3.3561,-3.3931,-3.4091,-3.4266,-3.4545,-3.4657,-3.4903,-3.5057,-3.5362,-3.5464,-3.5634,-3.5817,-3.5906,-3.59,-3.6002,-3.6014,-3.5975,-3.6048,-3.5966,-3.5966,-3.6004,-3.6006,-3.6007,-3.6024,0,-3.2837,-3.3168,-3.3424,-3.3657,-3.3849,-3.411,-3.4264,-3.4506,-3.4704,-3.4894,-3.5112,-3.5325,-3.5441,-3.5547,-3.5647,-3.5879,-3.5919,-3.5882,-3.615,-3.6156,-3.6068,-3.5973,-3.5886,-3.5889,-3.6031,-3.6032,-3.6032,0,-3.2853,-3.3096,-3.3349,-3.3706,-3.3796,-3.3929,-3.4209,-3.4388,-3.467,-3.4808,-3.5001,-3.5194,-3.5391,-3.5468,-3.5744,-3.5713,-3.5839,-3.597,-3.5977,-3.601,-3.6088,-3.6004,-3.5896,-3.5895,-3.6043,-3.6042,-3.6041,0,-3.2636,-3.3026,-3.3231,-3.3365,-3.3785,-3.3874,-3.4052,-3.4337,-3.449,-3.4733,-3.4837,-3.5096,-3.5239,-3.5436,-3.5694,-3.5726,-3.5945,-3.6042,-3.6065,-3.6058,-3.6097,-3.609,-3.6007,-3.6177,-3.6177,-3.6177,-3.6177,0,-3.2584,-3.2728,-3.314,-3.3264,-3.3436,-3.3731,-3.3892,-3.4093,-3.4345,-3.4514,-3.4754,-3.4907,-3.5239,-3.5432,-3.5635,-3.5835,-3.5896,-3.6013,-3.6065,-3.5992,-3.5977,-3.6077,-3.6083,-3.6177,-3.6177,-3.6177,-3.6177,0,-3.2368,-3.265,-3.289,-3.3272,-3.3372,-3.3481,-3.3808,-3.3939,-3.4154,-3.4365,-3.4431,-3.4766,-3.5006,-3.5285,-3.5614,-3.5751,-3.5935,-3.6012,-3.5841,-3.5871,-3.5878,-3.5873,-3.5855,-3.5869,-3.6026,-3.6024,-3.6023,0,-3.2315,-3.2434,-3.2832,-3.2965,-3.3139,-3.3348,-3.3508,-3.3804,-3.396,-3.4296,-3.4387,-3.4647,-3.4871,-3.5243,-3.5514,-3.5769,-3.5854,-3.5831,-3.5893,-3.5817,-3.5855,-3.5845,-3.586,-3.5811,-3.5808,-3.5805,-3.5803,0,-3.2192,-3.2328,-3.2551,-3.2825,-3.301,-3.3239,-3.3477,-3.3571,-3.3916,-3.4079,-3.4332,-3.4505,-3.4847,-3.5103,-3.5393,-3.5577,-3.5747,-3.5783,-3.5802,-3.5727,-3.5623,-3.5682,-3.5794,-3.5781,-3.5783,-3.5785,-3.5786,-3.5787,-3.2058,-3.2178,-3.2479,-3.2721,-3.2933,-3.3152,-3.3297,-3.3533,-3.375,-3.4054,-3.4216,-3.4465,-3.4751,-3.516,-3.5339,-3.5538,-3.5595,-3.5621,-3.5629,-3.563,-3.561,-3.5593,-3.5592,-3.5593,-3.5594,-3.5595,-3.5595,0,-3.1948,-3.2157,-3.2377,-3.2707,-3.2898,-3.3049,-3.3323,-3.3472,-3.369,-3.3944,-3.4162,-3.4454,-3.4705,-3.5,-3.527,-3.5373,-3.5459,-3.5434,-3.5429,-3.5469,-3.5543,-3.55,-3.5361,-3.5361,-3.5361,-3.5361,-3.5361,-3.5361,-3.1913,-3.2126,-3.2298,-3.262,-3.2829,-3.3079,-3.3223,-3.3427,-3.3632,-3.3949,-3.4161,-3.4354,-3.4626,-3.492,-3.5157,-3.5238,-3.5326,-3.5278,-3.5381,-3.5443,-3.5463,-3.5482,-3.5444,-3.5295,-3.5295,-3.5292,-3.5292,-3.5292]},{"header":{"parameterUnit":"m.s-1","parameterCategory":1,"la1":30.2991,"la2":30.254,"lo1":-89.0895,"lo2":-89.0444,"dy":0.0017,"dx":0.0017,"nx":28,"ny":28,"refTime":"2025-07-22T21:00:00:Z","depth":0,"parameterNumber":3,"parameterNumberName":"V-component_of_WINDS"},"data":[0,0,0,0,0,0,0,0,0,0,0,0,0,0,0,0,0,0,0,0,0,0,0,0,0,0,0,0,0,0,0,0,0,0,0,0,0,0,0,0,0,0,0,0,0,0,0,0,0,0,0,0,0,0,0,0,0,0,3.0051,3.0052,0,3.0116,3.0116,3.0117,3.0194,3.0196,3.0197,3.0198,3.0257,3.0257,3.0258,0,0,0,0,0,0,0,0,0,0,0,0,0,2.9984,2.9985,3.0051,3.0052,3.0052,3.0116,3.0116,3.0117,3.0194,3.0196,3.0197,3.0198,3.0257,3.0257,3.0258,0,0,0,0,0,0,0,0,0,0,0,0,0,3.0027,2.9985,3.0051,3.0099,3.0104,3.0115,3.0116,3.0117,3.0194,3.0196,3.0197,3.0199,3.0257,3.0257,3.0258,3.0226,0,0,3.026,3.026,0,0,0,0,0,0,0,0,3.0024,3.0029,3.0091,3.0095,3.0101,3.0149,3.0115,3.0154,3.0193,3.0159,3.0198,3.02,3.0219,3.0223,3.0231,3.0229,3.0231,3.026,3.0261,3.0261,3.0261,0,0,0,0,0,0,0,3.0021,3.0027,3.0076,3.0091,3.0098,3.0113,3.0122,3.0122,3.0178,3.0162,3.0168,3.0175,3.0222,3.023,3.0233,3.0232,3.026,3.0261,3.0261,3.0261,3.0199,3.0197,0,0,0,0,0,0,3.0012,3.0024,3.0074,3.0078,3.0067,3.0113,3.0122,3.0132,3.0178,3.0187,3.0174,3.0179,3.0228,3.0232,3.0235,3.0195,3.0261,3.0261,3.0262,3.0201,3.0198,3.0196,0,0,0,0,0,0,3.0011,3.0016,3.0072,3.0053,3.0061,3.0113,3.0122,3.0132,3.014,3.0187,3.0196,3.0172,3.023,3.0234,3.0226,3.0198,3.0262,3.0262,3.0203,3.02,3.0197,3.0117,0,0,0,0,0,0,3.0008,3.0015,3.0006,3.0052,3.0062,3.0064,3.0121,3.0132,3.0142,3.0149,3.0188,3.0196,3.0231,3.0225,3.0227,3.02,3.0263,3.0206,3.0202,3.0198,3.0123,3.0112,3.0103,0,0,0,0,0,3.0006,2.9981,3.0005,3.0011,3.0052,3.0063,3.0068,3.0112,3.0139,3.0128,3.0157,3.0195,3.0202,3.0224,3.0227,3.02,3.0208,3.0203,3.0198,3.0127,3.0114,3.0103,0,0,0,0,0,0,2.9929,2.9988,3.0015,3.0006,3.0029,3.0076,3.0064,3.0097,3.0111,3.0117,3.0168,3.0176,3.016,3.018,3.0203,3.0167,3.021,3.0205,3.0154,3.0143,3.0133,3.0126,3.0263,0,0,0,0,0,2.9912,2.9918,2.9969,2.9955,2.9965,3.0012,3.0019,3.005,3.0075,3.0084,3.0114,3.0134,3.014,3.0143,3.0152,3.0127,3.0132,3.0109,3.0099,3.0091,3.0085,3.0066,3.0054,3.0181,3.0181,3.0181,0,0,2.9874,2.9907,2.9908,2.994,2.9962,2.9963,3.002,3.0021,3.0021,3.0084,3.0077,3.0099,3.0125,3.0106,3.0099,3.0122,3.0052,3.0085,3.0078,3.0077,3.006,3.0048,3.0037,3.0177,3.0178,3.0179,0,0,2.9806,2.9835,2.9823,2.9843,2.9875,2.9906,2.9903,2.9945,2.9961,2.9956,3.0001,3.0001,3.0013,3.0027,3.0036,2.9969,3.0,2.997,2.9916,2.9897,2.9887,2.9878,2.9847,2.9836,2.9965,2.9965,2.9965,0,2.9755,2.9763,2.9813,2.9809,2.9819,2.9877,2.9863,2.9879,2.9911,2.9915,2.9941,2.9952,2.9975,2.9956,2.9939,2.9947,2.994,2.9964,2.9885,2.9877,2.9869,2.984,2.9829,2.9961,2.9961,2.9962,2.9962,0,2.9695,2.9698,2.9685,2.9715,2.9723,2.9715,2.9759,2.9761,2.9791,2.9817,2.9807,2.9835,2.9848,2.9847,2.9877,2.9831,2.9843,2.9876,2.9919,2.9852,2.9825,2.9815,2.9954,2.9956,2.9957,2.9958,0,0,2.9581,2.9636,2.9629,2.9641,2.9679,2.968,2.9672,2.9685,2.9683,2.9703,2.9692,2.9699,2.9728,2.9738,2.9769,2.9753,2.9688,2.9787,2.9788,2.9762,2.9632,2.9602,2.9589,2.9712,2.971,2.9709,2.9627,0,2.9515,2.9505,2.9548,2.9525,2.9525,2.9579,2.957,2.9589,2.9613,2.9614,2.964,2.964,2.9683,2.9688,2.9675,2.9699,2.9662,2.9707,2.9696,2.9695,2.9682,2.9576,2.9546,2.9468,2.9618,2.9616,2.9615,0,2.9438,2.9452,2.9429,2.9462,2.9464,2.9456,2.9468,2.9471,2.9491,2.9509,2.9518,2.9554,2.9542,2.9586,2.9567,2.9596,2.9595,2.9606,2.9603,2.9599,2.9647,2.9563,2.9445,2.943,2.96,2.9602,2.9603,0,2.9348,2.9363,2.9349,2.9358,2.9399,2.939,2.9406,2.9429,2.9432,2.9443,2.9444,2.9453,2.9455,2.9459,2.9493,2.9524,2.9467,2.9516,2.9476,2.9474,2.9458,2.9457,2.9331,2.9467,2.9467,2.9467,2.9468,0,2.9268,2.925,2.9308,2.9299,2.9279,2.9326,2.9303,2.9324,2.9343,2.9335,2.9384,2.9374,2.9424,2.9418,2.9446,2.9421,2.9424,2.9433,2.9439,2.9425,2.9423,2.9421,2.9425,2.9464,2.9465,2.9466,2.9466,0,2.9163,2.9203,2.919,2.9229,2.9238,2.922,2.9251,2.9241,2.9268,2.9256,2.9256,2.9296,2.9292,2.9328,2.9331,2.9348,2.9308,2.9327,2.9301,2.9304,2.9259,2.926,2.9122,2.9102,2.9257,2.9256,2.9254,0,2.9107,2.9094,2.913,2.9129,2.9142,2.9141,2.9143,2.9188,2.9189,2.9208,2.9194,2.9194,2.9196,2.9186,2.9212,2.9212,2.9227,2.9179,2.9227,2.9211,2.9218,2.9215,2.921,2.9167,2.9165,2.9163,2.9162,0,2.9,2.9019,2.9023,2.9031,2.9033,2.9041,2.9053,2.9048,2.9097,2.9093,2.909,2.9091,2.9092,2.9088,2.9093,2.9106,2.9138,2.9147,2.9136,2.9119,2.9101,2.9102,2.9266,2.9149,2.915,2.9151,2.9152,2.9153,2.8913,2.8901,2.8923,2.8923,2.8937,2.8945,2.8936,2.896,2.8958,2.8963,2.899,2.8979,2.8994,2.9004,2.9013,2.9002,2.9024,2.9011,2.9006,2.9,2.8988,2.9108,2.9004,2.9004,2.9004,2.9005,2.9005,0,2.8802,2.8818,2.8819,2.8832,2.883,2.8866,2.8878,2.8873,2.8864,2.8877,2.8876,2.8868,2.8863,2.8889,2.8886,2.8872,2.8886,2.8869,2.8867,2.8867,2.8973,2.8979,2.8857,2.8857,2.8857,2.8857,2.8857,2.8857,2.8744,2.8724,2.8744,2.8728,2.8744,2.8734,2.8738,2.8743,2.8752,2.8741,2.8738,2.8755,2.877,2.8768,2.8763,2.8771,2.8764,2.8739,2.875,2.8847,2.8861,2.8875,2.888,2.874,2.8739,2.8645,2.8644,2.8644]}]]